Regional Weather Roundup
Issued by NWS Albany, NY

Home | Current Version | Previous Version | Graphics & Text | Print | Product List | Glossary Off
Versions: 1 2 3 4 5 6 7 8 9 10 11 12 13 14 15 16 17 18 19 20 21 22 23 24 25 26 27 28 29 30 31 32 33 34 35 36 37 38 39 40 41 42 43 44 45 46 47 48 49 50

781
ASUS41 KALY 260010
RWRALY

NEW YORK STATE HOURLY WEATHER ROUNDUP
NATIONAL WEATHER SERVICE ALBANY NY
800 PM EDT MON JUL 25 2016

NOTE: "FAIR" INDICATES FEW OR NO CLOUDS BELOW 12,000 FEET WITH NO
SIGNIFICANT WEATHER AND/OR NO OBSTRUCTIONS TO VISIBILITY.

NYZ032-033-038>043-046>054-057>066-NYZ062>081-082-084-260100-
EAST


CITY           SKY/WX    TMP DP  RH WIND       PRES   REMARKS
ALBANY         MOCLDY    79  73  82 SW7       29.79R
GLENS FALLS    CLOUDY    80  70  71 SW5       29.78S
POUGHKEEPSIE   CLOUDY    77  73  87 SW6       29.81F
NEWBURGH       MOCLDY    73  72  94 W7        29.85F
MONTGOMERY     HVY RAIN  73  71  93 W6        29.85F
WHITE PLAINS   LGT RAIN  72  70  93 S5        29.88F
ISLIP          TSTM      75  73  93 W9        29.90R
NEW YORK CITY  CLOUDY    78  71  79 N3        29.87F
CENTRAL PARK   LGT RAIN  75  73  93 CALM      29.91F FOG
$$

NYZ005>009-017-018-044>046-055-056-260100-
CENTRAL


CITY           SKY/WX    TMP DP  RH WIND       PRES   REMARKS
FULTON         CLOUDY    80  72  76 SW6       29.82S
SYRACUSE       MOCLDY    79  71  76 W9        29.81F
ROME           MOCLDY    78  71  79 W6        29.82F
ELMIRA         CLEAR     76  69  79 NW3       29.88S
BINGHAMTON     CLOUDY    69  68  96 SW8       29.91S
MONTICELLO     CLOUDY    70  70 100 W3        29.91S
$$

NYZ026>034-041>043-087-260100-
NORTH


CITY           SKY/WX    TMP DP  RH WIND       PRES   REMARKS
WATERTOWN      CLEAR     77  72  84 SW10      29.78R
FORT DRUM      NOT AVBL
MASSENA        CLEAR     77  69  76 SW10      29.74R
SARANAC LAKE   MOCLDY    72  65  78 SW9       29.81F
PLATTSBURGH    CLOUDY    78  69  73 SW3       29.73S
$$

NYZ001>004-010>016-019>021-085-260100-
WEST


CITY           SKY/WX    TMP DP  RH WIND       PRES   REMARKS
NIAGARA FALLS  PTCLDY    84  61  45 NW10      29.85R
BUFFALO        MOCLDY    77  72  84 SW10      29.86R
DUNKIRK        CLEAR     78  72  81 SW7       29.90R
JAMESTOWN      CLEAR     77  64  65 W7        29.96R
WELLSVILLE     CLEAR     76  68  76 W7        29.97R
ROCHESTER      PTCLDY    82  73  74 W14       29.84R
PENN YAN       CLEAR     79  70  74 SW6       29.87S
$$

             KEY
       WCI = WIND CHILL INDEX
       VSB = VISIBILITY
       HX  = HEAT INDEX
$$




USA.gov is the U.S. government's official web portal to all federal, state and local government web resources and services.